Zurück zum Katalog

STARLINK-31133

AktivKommunikationVLEO
NORAD 58622·PAYLOAD·🇺🇸 United States

Gestartet Dec 23, 2023 von Cape Canaveral Space Force Station

Loading…

Nächste Überflüge (nächste 24 Stunden)

TLE

AktuellSource: CelesTrak SupGP

Epoche: Sep 15, 2026, 01:48 UTC

1 58622C 23203E   26258.07548611  .00010940  00000+0  39618-3 0  2589
2 58622  43.0008  77.6383 0001497 271.9047 114.8361 15.27578906    10

Verfolge STARLINK-31133 in Echtzeit mit AllMySat

Download on the App Store